| time (UTC) | temp F | wind direction | speed MPH | gust MPH | rain 1hr in | rain 24hr in | rain mn in | humidity % | barometer mb |
| 20260902141008 | 67 | 146 | 1.0 | 4.0 | 0.00 | 0.67 | 0.65 | 92 | 1013.9 |
| 20260902140510 | 67 | 129 | 1.0 | 5.0 | 0.00 | 0.67 | 0.65 | 93 | 1014.0 |
| 20260902140020 | 67 | 109 | 1.0 | 5.0 | 0.00 | 0.67 | 0.65 | 93 | 1013.8 |
| 20260902135517 | 67 | 162 | 1.0 | 4.0 | 0.00 | 0.67 | 0.65 | 93 | 1013.8 |
| 20260902135010 | 66 | 105 | 1.0 | 4.0 | 0.00 | 0.67 | 0.65 | 93 | 1013.9 |
| 20260902134518 | 66 | 134 | 1.0 | 4.0 | 0.00 | 0.67 | 0.65 | 94 | 1014.1 |
| 20260902134014 | 66 | 121 | 1.0 | 6.0 | 0.00 | 0.67 | 0.65 | 94 | 1014.0 |
| 20260902133506 | 66 | 161 | 2.0 | 6.0 | 0.00 | 0.67 | 0.65 | 94 | 1014.0 |
| 20260902133016 | 66 | 141 | 0.0 | 3.0 | 0.00 | 0.67 | 0.65 | 94 | 1013.8 |
| 20260902132513 | 65 | 140 | 1.0 | 2.0 | 0.00 | 0.67 | 0.65 | 94 | 1013.7 |
| 20260902132007 | 65 | 92 | 0.0 | 5.0 | 0.00 | 0.67 | 0.65 | 94 | 1013.6 |
| 20260902131511 | 65 | 144 | 1.0 | 6.0 | 0.00 | 0.67 | 0.65 | 94 | 1013.9 |
| 20260902131009 | 65 | 157 | 2.0 | 6.0 | 0.00 | 0.67 | 0.65 | 94 | 1014.2 |
| 20260902130510 | 64 | 165 | 1.0 | 4.0 | 0.00 | 0.67 | 0.65 | 94 | 1014.1 |
| 20260902130010 | 64 | 127 | 0.0 | 3.0 | 0.00 | 0.67 | 0.65 | 94 | 1014.1 |
| 20260902125508 | 64 | 144 | 0.0 | 3.0 | 0.00 | 0.67 | 0.65 | 93 | 1014.0 |
| 20260902125014 | 64 | 98 | 0.0 | 0.0 | 0.01 | 0.67 | 0.65 | 93 | 1014.3 |
| 20260902124523 | 64 | 98 | 0.0 | 0.0 | 0.01 | 0.67 | 0.65 | 93 | 1014.4 |
| 20260902124011 | 64 | 98 | 0.0 | 2.0 | 0.01 | 0.67 | 0.65 | 93 | 1014.3 |
| 20260902123513 | 63 | 98 | 0.0 | 2.0 | 0.01 | 0.67 | 0.65 | 93 | 1014.3 |
| 20260902123029 | 63 | 123 | 0.0 | 2.0 | 0.01 | 0.67 | 0.65 | 93 | 1014.3 |
| 20260902122518 | 63 | 40 | 0.0 | 0.0 | 0.01 | 0.67 | 0.65 | 93 | 1014.2 |
| 20260902122012 | 63 | 40 | 0.0 | 0.0 | 0.01 | 0.67 | 0.65 | 93 | 1013.6 |
| 20260902121524 | 63 | 40 | 0.0 | 0.0 | 0.01 | 0.67 | 0.65 | 93 | 1013.6 |
| 20260902121014 | 63 | 40 | 0.0 | 1.0 | 0.01 | 0.67 | 0.65 | 93 | 1013.5 |
| 20260902120508 | 63 | 40 | 0.0 | 1.0 | 0.01 | 0.67 | 0.65 | 93 | 1013.3 |
| 20260902120015 | 63 | 40 | 0.0 | 0.0 | 0.01 | 0.67 | 0.65 | 93 | 1012.9 |
| 20260902115508 | 63 | 40 | 0.0 | 1.0 | 0.01 | 0.67 | 0.65 | 93 | 1012.9 |
| 20260902115010 | 63 | 40 | 0.0 | 1.0 | 0.00 | 0.66 | 0.64 | 93 | 1013.1 |
| 20260902114518 | 63 | 78 | 0.0 | 0.0 | 0.00 | 0.66 | 0.64 | 93 | 1013.3 |
| 20260902114012 | 64 | 79 | 0.0 | 0.0 | 0.00 | 0.66 | 0.64 | 93 | 1013.4 |
| 20260902113513 | 63 | 78 | 0.0 | 0.0 | 0.00 | 0.66 | 0.64 | 93 | 1013.5 |
| 20260902113016 | 64 | 78 | 0.0 | 0.0 | 0.00 | 0.66 | 0.64 | 93 | 1013.3 |
| 20260902112513 | 64 | 78 | 0.0 | 1.0 | 0.00 | 0.66 | 0.64 | 93 | 1013.5 |
| 20260902112017 | 64 | 79 | 0.0 | 2.0 | 0.00 | 0.66 | 0.64 | 93 | 1013.2 |
| 20260902111531 | 64 | 114 | 0.0 | 2.0 | 0.00 | 0.66 | 0.64 | 93 | 1013.3 |
| 20260902111008 | 64 | 352 | 0.0 | 1.0 | 0.01 | 0.66 | 0.64 | 93 | 1013.4 |
| 20260902110514 | 64 | 103 | 0.0 | 1.0 | 0.03 | 0.66 | 0.64 | 93 | 1013.6 |
| 20260902110044 | 64 | 157 | 0.0 | 1.0 | 0.03 | 0.66 | 0.64 | 93 | 1014.0 |
| 20260902105517 | 64 | 134 | 0.0 | 1.0 | 0.03 | 0.66 | 0.64 | 93 | 1014.4 |
| 20260902105010 | 64 | 134 | 0.0 | 1.0 | 0.03 | 0.66 | 0.64 | 93 | 1014.4 |
| 20260902104532 | 64 | 134 | 0.0 | 2.0 | 0.03 | 0.66 | 0.64 | 93 | 1014.7 |
| 20260902104010 | 64 | 134 | 0.0 | 2.0 | 0.03 | 0.66 | 0.64 | 93 | 1015.1 |
| 20260902103509 | 64 | 224 | 0.0 | 2.0 | 0.03 | 0.66 | 0.64 | 93 | 1014.6 |
| 20260902103044 | 64 | 224 | 0.0 | 3.0 | 0.03 | 0.66 | 0.64 | 93 | 1015.2 |
| 20260902102514 | 64 | 174 | 0.0 | 3.0 | 0.03 | 0.66 | 0.64 | 93 | 1015.0 |
| 20260902102015 | 63 | 210 | 0.0 | 5.0 | 0.03 | 0.66 | 0.64 | 93 | 1015.0 |
| 20260902101524 | 63 | 167 | 0.0 | 12.0 | 0.03 | 0.66 | 0.64 | 93 | 1015.3 |
| 20260902101015 | 63 | 82 | 1.0 | 12.0 | 0.02 | 0.65 | 0.63 | 93 | 1015.0 |
| 20260902100514 | 63 | 233 | 4.0 | 7.0 | 0.00 | 0.63 | 0.61 | 93 | 1015.8 |
| 20260902100016 | 63 | 139 | 0.0 | 3.0 | 0.00 | 0.63 | 0.61 | 93 | 1014.5 |
| 20260902095505 | 63 | 147 | 0.0 | 4.0 | 0.00 | 0.63 | 0.61 | 93 | 1014.2 |
| 20260902095006 | 63 | 125 | 1.0 | 4.0 | 0.00 | 0.63 | 0.61 | 92 | 1014.1 |
| 20260902094511 | 63 | 127 | 0.0 | 3.0 | 0.00 | 0.63 | 0.61 | 92 | 1014.2 |
| 20260902094010 | 62 | 154 | 1.0 | 3.0 | 0.00 | 0.63 | 0.61 | 92 | 1014.0 |
| 20260902093512 | 62 | 131 | 1.0 | 3.0 | 0.00 | 0.63 | 0.61 | 92 | 1013.7 |
| 20260902093010 | 62 | 119 | 0.0 | 1.0 | 0.00 | 0.63 | 0.61 | 92 | 1013.3 |
| 20260902092511 | 62 | 360 | 0.0 | 1.0 | 0.00 | 0.63 | 0.61 | 92 | 1013.3 |
| 20260902092017 | 62 | 336 | 0.0 | 2.0 | 0.00 | 0.63 | 0.61 | 92 | 1013.5 |
| 20260902091526 | 63 | 345 | 0.0 | 2.0 | 0.00 | 0.63 | 0.61 | 92 | 1013.4 |
| 20260902091006 | 63 | 82 | 0.0 | 1.0 | 0.00 | 0.63 | 0.61 | 92 | 1013.5 |
| 20260902090514 | 63 | 82 | 0.0 | 1.0 | 0.00 | 0.63 | 0.61 | 92 | 1013.6 |
| 20260902090035 | 63 | 9 | 0.0 | 1.0 | 0.00 | 0.63 | 0.61 | 92 | 1013.7 |
| 20260902085507 | 63 | 9 | 0.0 | 2.0 | 0.00 | 0.63 | 0.61 | 92 | 1013.6 |
| 20260902085010 | 63 | 43 | 0.0 | 2.0 | 0.00 | 0.63 | 0.61 | 92 | 1013.6 |
| 20260902084512 | 63 | 129 | 0.0 | 3.0 | 0.00 | 0.63 | 0.61 | 92 | 1013.5 |
| 20260902084008 | 64 | 129 | 0.0 | 3.0 | 0.00 | 0.63 | 0.61 | 92 | 1013.6 |
| 20260902083513 | 64 | 146 | 0.0 | 3.0 | 0.00 | 0.63 | 0.61 | 92 | 1013.5 |
| 20260902083013 | 64 | 131 | 0.0 | 0.0 | 0.00 | 0.63 | 0.61 | 92 | 1013.6 |
| 20260902082511 | 64 | 131 | 0.0 | 3.0 | 0.00 | 0.63 | 0.61 | 92 | 1013.6 |
| 20260902082013 | 64 | 131 | 0.0 | 3.0 | 0.00 | 0.63 | 0.61 | 92 | 1013.6 |
| 20260902081516 | 64 | 127 | 0.0 | 3.0 | 0.00 | 0.63 | 0.61 | 92 | 1013.8 |
| 20260902081013 | 64 | 127 | 0.0 | 3.0 | 0.00 | 0.63 | 0.61 | 92 | 1013.7 |
| 20260902080514 | 64 | 121 | 0.0 | 2.0 | 0.00 | 0.63 | 0.61 | 92 | 1013.8 |
| 20260902080020 | 64 | 84 | 0.0 | 6.0 | 0.00 | 0.63 | 0.61 | 92 | 1013.7 |
| 20260902075513 | 64 | 25 | 1.0 | 6.0 | 0.02 | 0.63 | 0.61 | 92 | 1013.6 |
| 20260902075015 | 64 | 352 | 1.0 | 9.0 | 0.03 | 0.63 | 0.61 | 92 | 1013.6 |
| 20260902074532 | 64 | 31 | 0.0 | 9.0 | 0.05 | 0.63 | 0.61 | 91 | 1013.5 |
| 20260902074010 | 64 | 5 | 1.0 | 8.0 | 0.20 | 0.63 | 0.61 | 91 | 1013.9 |
| 20260902073519 | 64 | 55 | 1.0 | 10.0 | 0.50 | 0.63 | 0.61 | 91 | 1013.6 |
| 20260902073030 | 65 | 352 | 2.0 | 10.0 | 0.61 | 0.63 | 0.61 | 91 | 1013.7 |
| 20260902072508 | 65 | 58 | 2.0 | 10.0 | 0.61 | 0.63 | 0.61 | 91 | 1014.0 |
| 20260902072012 | 65 | 352 | 2.0 | 9.0 | 0.61 | 0.63 | 0.61 | 91 | 1014.2 |
| 20260902071518 | 65 | 347 | 1.0 | 17.0 | 0.61 | 0.63 | 0.61 | 90 | 1014.5 |
| 20260902071012 | 65 | 13 | 5.0 | 17.0 | 0.61 | 0.63 | 0.61 | 90 | 1014.4 |
| 20260902070509 | 65 | 276 | 5.0 | 15.0 | 0.61 | 0.63 | 0.61 | 88 | 1014.3 |
| 20260902070027 | 66 | 284 | 4.0 | 16.0 | 0.61 | 0.63 | 0.61 | 88 | 1014.4 |
| 20260902065514 | 67 | 352 | 4.0 | 19.0 | 0.58 | 0.61 | 0.58 | 87 | 1015.7 |
| 20260902065020 | 68 | 305 | 6.0 | 26.0 | 0.58 | 0.60 | 0.58 | 87 | 1016.5 |
| 20260902064527 | 68 | 236 | 5.0 | 26.0 | 0.56 | 0.58 | 0.56 | 86 | 1016.1 |
| 20260902064015 | 70 | 321 | 7.0 | 24.0 | 0.41 | 0.43 | 0.41 | 85 | 1016.5 |
| 20260902063518 | 71 | 66 | 8.0 | 24.0 | 0.11 | 0.13 | 0.11 | 86 | 1015.9 |
| 20260902063041 | 71 | 214 | 7.0 | 17.0 | 0.00 | 0.02 | 0.00 | 88 | 1013.4 |
| 20260902062513 | 71 | 232 | 0.0 | 6.0 | 0.00 | 0.02 | 0.00 | 88 | 1011.8 |
| 20260902062015 | 71 | 55 | 1.0 | 6.0 | 0.00 | 0.02 | 0.00 | 88 | 1012.0 |
| 20260902061556 | 71 | 42 | 0.0 | 4.0 | 0.00 | 0.02 | 0.00 | 89 | 1012.0 |
| 20260902061009 | 71 | 5 | 0.0 | 4.0 | 0.00 | 0.02 | 0.00 | 89 | 1012.7 |
| 20260902060512 | 71 | 44 | 0.0 | 4.0 | 0.00 | 0.02 | 0.00 | 89 | 1012.5 |
| 20260902060035 | 71 | 9 | 0.0 | 2.0 | 0.00 | 0.02 | 0.00 | 89 | 1012.8 |
| 20260902055510 | 71 | 38 | 0.0 | 0.0 | 0.00 | 0.02 | 0.00 | 89 | 1013.0 |
| 20260902055014 | 71 | 38 | 0.0 | 1.0 | 0.00 | 0.02 | 0.00 | 89 | 1012.7 |
| 20260902054524 | 71 | 38 | 0.0 | 1.0 | 0.00 | 0.02 | 0.00 | 89 | 1012.7 |
| 20260902054016 | 71 | 38 | 0.0 | 3.0 | 0.02 | 0.02 | 0.00 | 89 | 1012.7 |
| 20260902053513 | 72 | 38 | 0.0 | 3.0 | 0.02 | 0.02 | 0.00 | 88 | 1012.6 |
| 20260902053037 | 72 | 20 | 0.0 | 3.0 | 0.02 | 0.02 | 0.00 | 89 | 1012.7 |
| 20260902052517 | 72 | 11 | 1.0 | 3.0 | 0.02 | 0.02 | 0.00 | 89 | 1013.0 |
| 20260902052015 | 72 | 352 | 0.0 | 2.0 | 0.02 | 0.02 | 0.00 | 89 | 1013.2 |
| 20260902051523 | 72 | 17 | 0.0 | 0.0 | 0.02 | 0.02 | 0.00 | 88 | 1013.1 |
| 20260902051017 | 72 | 17 | 0.0 | 2.0 | 0.02 | 0.02 | 0.00 | 88 | 1013.0 |
| 20260902050515 | 72 | 17 | 0.0 | 2.0 | 0.02 | 0.02 | 0.00 | 88 | 1013.2 |
| 20260902050022 | 73 | 294 | 0.0 | 1.0 | 0.02 | 0.02 | 0.00 | 88 | 1013.4 |
| 20260902045514 | 73 | 282 | 0.0 | 0.0 | 0.02 | 0.02 | 0.02 | 87 | 1013.5 |
| 20260902045013 | 73 | 282 | 0.0 | 0.0 | 0.02 | 0.02 | 0.02 | 87 | 1013.4 |
| 20260902044548 | 73 | 282 | 0.0 | 1.0 | 0.02 | 0.02 | 0.02 | 86 | 1013.3 |
| 20260902044014 | 73 | 282 | 0.0 | 1.0 | 0.00 | 0.00 | 0.00 | 85 | 1013.5 |
| 20260902043513 | 73 | 282 | 0.0 | 1.0 | 0.00 | 0.00 | 0.00 | 84 | 1013.6 |
| 20260902043034 | 73 | 282 | 0.0 | 1.0 | 0.00 | 0.00 | 0.00 | 84 | 1013.3 |
| 20260902042512 | 73 | 256 | 0.0 | 0.0 | 0.00 | 0.00 | 0.00 | 84 | 1013.5 |
| 20260902042018 | 73 | 256 | 0.0 | 2.0 | 0.00 | 0.00 | 0.00 | 83 | 1013.4 |
| 20260902041539 | 73 | 256 | 0.0 | 2.0 | 0.00 | 0.00 | 0.00 | 84 | 1013.4 |
| 20260902041018 | 73 | 14 | 0.0 | 1.0 | 0.00 | 0.00 | 0.00 | 84 | 1013.3 |
| 20260902040514 | 73 | 14 | 0.0 | 1.0 | 0.00 | 0.00 | 0.00 | 84 | 1013.2 |
| 20260902040030 | 73 | 14 | 0.0 | 1.0 | 0.00 | 0.00 | 0.00 | 84 | 1013.2 |
| 20260902035517 | 73 | 14 | 0.0 | 1.0 | 0.00 | 0.00 | 0.00 | 84 | 1013.2 |
| 20260902035020 | 73 | 14 | 0.0 | 0.0 | 0.00 | 0.00 | 0.00 | 85 | 1013.2 |
| 20260902034533 | 73 | 14 | 0.0 | 1.0 | 0.00 | 0.00 | 0.00 | 85 | 1013.3 |
| 20260902034015 | 73 | 14 | 0.0 | 1.0 | 0.00 | 0.00 | 0.00 | 85 | 1013.4 |
| 20260902033515 | 73 | 14 | 0.0 | 0.0 | 0.00 | 0.00 | 0.00 | 85 | 1013.6 |
| 20260902033023 | 73 | 14 | 0.0 | 0.0 | 0.00 | 0.00 | 0.00 | 85 | 1013.8 |
| 20260902032519 | 72 | 14 | 0.0 | 0.0 | 0.00 | 0.00 | 0.00 | 85 | 1013.8 |
| 20260902032011 | 72 | 14 | 0.0 | 0.0 | 0.00 | 0.00 | 0.00 | 85 | 1013.7 |
| 20260902031537 | 72 | 14 | 0.0 | 2.0 | 0.00 | 0.00 | 0.00 | 85 | 1013.7 |
| 20260902031015 | 72 | 14 | 0.0 | 2.0 | 0.00 | 0.00 | 0.00 | 85 | 1013.9 |
| 20260902030517 | 72 | 19 | 0.0 | 1.0 | 0.00 | 0.00 | 0.00 | 84 | 1013.7 |
| 20260902030016 | 73 | 215 | 0.0 | 0.0 | 0.00 | 0.00 | 0.00 | 84 | 1013.7 |
| 20260902025516 | 73 | 215 | 0.0 | 0.0 | 0.00 | 0.00 | 0.00 | 84 | 1013.8 |
| 20260902025008 | 73 | 215 | 0.0 | 0.0 | 0.00 | 0.00 | 0.00 | 83 | 1013.7 |
| 20260902024516 | 73 | 215 | 0.0 | 0.0 | 0.00 | 0.00 | 0.00 | 83 | 1013.7 |
| 20260902024011 | 73 | 215 | 0.0 | 0.0 | 0.00 | 0.00 | 0.00 | 83 | 1013.9 |
| 20260902023513 | 73 | 215 | 0.0 | 0.0 | 0.00 | 0.00 | 0.00 | 83 | 1014.0 |
| 20260902023027 | 74 | 215 | 0.0 | 0.0 | 0.00 | 0.00 | 0.00 | 82 | 1013.8 |
| 20260902022512 | 74 | 215 | 0.0 | 0.0 | 0.00 | 0.00 | 0.00 | 82 | 1013.8 |
| 20260902022013 | 74 | 215 | 0.0 | 0.0 | 0.00 | 0.00 | 0.00 | 81 | 1013.7 |
| 20260902021526 | 75 | 215 | 0.0 | 0.0 | 0.00 | 0.00 | 0.00 | 81 | 1013.7 |
| 20260902021014 | 75 | 215 | 0.0 | 0.0 | 0.00 | 0.00 | 0.00 | 81 | 1013.8 |
| 20260902020512 | 75 | 215 | 0.0 | 0.0 | 0.00 | 0.00 | 0.00 | 80 | 1013.8 |
| 20260902020029 | 75 | 215 | 0.0 | 0.0 | 0.00 | 0.00 | 0.00 | 80 | 1013.9 |
| 20260902015516 | 76 | 215 | 0.0 | 0.0 | 0.00 | 0.00 | 0.00 | 79 | 1013.9 |
| 20260902015011 | 76 | 215 | 0.0 | 0.0 | 0.00 | 0.00 | 0.00 | 79 | 1013.8 |
| 20260902014533 | 76 | 215 | 0.0 | 1.0 | 0.00 | 0.00 | 0.00 | 79 | 1013.7 |
| 20260902014018 | 76 | 215 | 0.0 | 1.0 | 0.00 | 0.00 | 0.00 | 79 | 1013.7 |
| 20260902013517 | 76 | 215 | 0.0 | 1.0 | 0.00 | 0.00 | 0.00 | 79 | 1013.7 |
| 20260902013017 | 76 | 215 | 0.0 | 0.0 | 0.00 | 0.00 | 0.00 | 78 | 1013.8 |
| 20260902012511 | 76 | 215 | 0.0 | 0.0 | 0.00 | 0.00 | 0.00 | 78 | 1013.7 |
| 20260902012014 | 76 | 215 | 0.0 | 0.0 | 0.00 | 0.00 | 0.00 | 78 | 1013.7 |
| 20260902011522 | 77 | 215 | 0.0 | 0.0 | 0.00 | 0.00 | 0.00 | 78 | 1013.6 |
| 20260902011015 | 77 | 215 | 0.0 | 0.0 | 0.00 | 0.00 | 0.00 | 77 | 1013.6 |
| 20260902010514 | 77 | 215 | 0.0 | 0.0 | 0.00 | 0.00 | 0.00 | 77 | 1013.5 |
| 20260902010034 | 77 | 215 | 0.0 | 0.0 | 0.00 | 0.00 | 0.00 | 76 | 1013.5 |
| 20260902005512 | 78 | 215 | 0.0 | 0.0 | 0.00 | 0.00 | 0.00 | 76 | 1013.8 |
| 20260902005018 | 78 | 215 | 0.0 | 0.0 | 0.00 | 0.00 | 0.00 | 75 | 1013.7 |
| 20260902004532 | 78 | 215 | 0.0 | 0.0 | 0.00 | 0.00 | 0.00 | 74 | 1013.6 |
| 20260902004017 | 78 | 215 | 0.0 | 0.0 | 0.00 | 0.00 | 0.00 | 74 | 1013.6 |
| 20260902003515 | 79 | 215 | 0.0 | 1.0 | 0.00 | 0.00 | 0.00 | 73 | 1013.6 |
| 20260902003006 | 79 | 215 | 0.0 | 1.0 | 0.00 | 0.00 | 0.00 | 73 | 1013.7 |
| 20260902002501 | 79 | 215 | 0.0 | 0.0 | 0.00 | 0.00 | 0.00 | 73 | 1013.7 |
| 20260902002003 | 80 | 215 | 0.0 | 0.0 | 0.00 | 0.00 | 0.00 | 72 | 1013.7 |
| 20260902001503 | 80 | 215 | 0.0 | 0.0 | 0.00 | 0.00 | 0.00 | 72 | 1013.7 |
| 20260902001002 | 80 | 215 | 0.0 | 0.0 | 0.00 | 0.00 | 0.00 | 71 | 1013.8 |
| 20260902000503 | 80 | 215 | 0.0 | 0.0 | 0.00 | 0.00 | 0.00 | 71 | 1013.8 |
| 20260902000007 | 80 | 215 | 0.0 | 0.0 | 0.00 | 0.00 | 0.00 | 70 | 1013.7 |
| 20260901235504 | 81 | 215 | 0.0 | 0.0 | 0.00 | 0.00 | 0.00 | 70 | 1013.7 |
| 20260901235003 | 81 | 215 | 0.0 | 0.0 | 0.00 | 0.00 | 0.00 | 69 | 1013.7 |
| 20260901234505 | 82 | 215 | 0.0 | 2.0 | 0.00 | 0.00 | 0.00 | 67 | 1013.7 |
| 20260901234002 | 82 | 215 | 0.0 | 2.0 | 0.00 | 0.00 | 0.00 | 65 | 1013.8 |
| 20260901233506 | 82 | 248 | 1.0 | 2.0 | 0.00 | 0.00 | 0.00 | 65 | 1013.8 |
| 20260901233012 | 82 | 215 | 0.0 | 1.0 | 0.00 | 0.00 | 0.00 | 65 | 1013.7 |
| 20260901232505 | 82 | 212 | 0.0 | 3.0 | 0.00 | 0.00 | 0.00 | 64 | 1013.7 |
| 20260901232004 | 82 | 211 | 0.0 | 3.0 | 0.00 | 0.00 | 0.00 | 63 | 1013.7 |
| 20260901231503 | 82 | 175 | 0.0 | 2.0 | 0.00 | 0.00 | 0.00 | 64 | 1013.7 |
| 20260901231005 | 82 | 252 | 0.0 | 1.0 | 0.00 | 0.00 | 0.00 | 66 | 1013.6 |
| 20260901230504 | 82 | 252 | 0.0 | 1.0 | 0.00 | 0.00 | 0.00 | 64 | 1013.5 |
| 20260901230008 | 83 | 252 | 0.0 | 0.0 | 0.00 | 0.00 | 0.00 | 64 | 1013.4 |
| 20260901225504 | 83 | 253 | 0.0 | 0.0 | 0.00 | 0.00 | 0.00 | 62 | 1013.5 |
| 20260901225003 | 83 | 253 | 0.0 | 2.0 | 0.00 | 0.00 | 0.00 | 62 | 1013.3 |
| 20260901224511 | 84 | 253 | 0.0 | 3.0 | 0.00 | 0.00 | 0.00 | 62 | 1013.4 |
| 20260901224008 | 84 | 243 | 0.0 | 3.0 | 0.00 | 0.00 | 0.00 | 61 | 1013.5 |
| 20260901223504 | 84 | 241 | 0.0 | 3.0 | 0.00 | 0.00 | 0.00 | 62 | 1013.6 |
| 20260901223011 | 84 | 234 | 0.0 | 4.0 | 0.00 | 0.00 | 0.00 | 61 | 1013.6 |
| 20260901222506 | 84 | 172 | 0.0 | 4.0 | 0.00 | 0.00 | 0.00 | 61 | 1013.6 |
| 20260901222004 | 84 | 257 | 1.0 | 3.0 | 0.00 | 0.00 | 0.00 | 60 | 1013.6 |
| 20260901221508 | 84 | 233 | 0.0 | 4.0 | 0.00 | 0.00 | 0.00 | 61 | 1013.7 |
| 20260901221005 | 84 | 193 | 1.0 | 6.0 | 0.00 | 0.00 | 0.00 | 61 | 1013.9 |
| 20260901220505 | 84 | 200 | 1.0 | 6.0 | 0.00 | 0.00 | 0.00 | 60 | 1014.0 |
| 20260901220007 | 84 | 241 | 0.0 | 4.0 | 0.00 | 0.00 | 0.00 | 59 | 1014.0 |
| 20260901215504 | 84 | 243 | 0.0 | 5.0 | 0.00 | 0.00 | 0.00 | 59 | 1013.9 |
| 20260901215008 | 85 | 218 | 0.0 | 6.0 | 0.00 | 0.00 | 0.00 | 58 | 1013.9 |
| 20260901214510 | 85 | 242 | 1.0 | 6.0 | 0.00 | 0.00 | 0.00 | 57 | 1013.9 |
| 20260901214007 | 85 | 207 | 0.0 | 3.0 | 0.00 | 0.00 | 0.00 | 55 | 1013.7 |
| 20260901213504 | 85 | 120 | 0.0 | 1.0 | 0.00 | 0.00 | 0.00 | 56 | 1013.7 |
| 20260901213019 | 85 | 120 | 0.0 | 2.0 | 0.00 | 0.00 | 0.00 | 57 | 1013.5 |
| 20260901212506 | 85 | 135 | 0.0 | 2.0 | 0.00 | 0.00 | 0.00 | 54 | 1013.3 |
| 20260901212008 | 86 | 170 | 0.0 | 2.0 | 0.00 | 0.00 | 0.00 | 54 | 1013.4 |
| 20260901211512 | 86 | 69 | 0.0 | 4.0 | 0.00 | 0.00 | 0.00 | 52 | 1013.7 |
| 20260901211008 | 86 | 219 | 0.0 | 4.0 | 0.00 | 0.00 | 0.00 | 48 | 1013.7 |
| 20260901210506 | 87 | 271 | 1.0 | 4.0 | 0.00 | 0.00 | 0.00 | 47 | 1013.7 |
| 20260901210014 | 87 | 204 | 0.0 | 4.0 | 0.00 | 0.00 | 0.00 | 47 | 1013.6 |
| 20260901205508 | 87 | 254 | 0.0 | 3.0 | 0.00 | 0.00 | 0.00 | 48 | 1013.5 |
| 20260901205009 | 87 | 242 | 1.0 | 3.0 | 0.00 | 0.00 | 0.00 | 46 | 1013.7 |
| 20260901204516 | 86 | 85 | 0.0 | 1.0 | 0.00 | 0.00 | 0.00 | 52 | 1013.5 |
| 20260901204008 | 85 | 85 | 0.0 | 2.0 | 0.00 | 0.00 | 0.00 | 50 | 1013.4 |
| 20260901203508 | 86 | 85 | 0.0 | 4.0 | 0.00 | 0.00 | 0.00 | 50 | 1013.5 |
| 20260901203014 | 86 | 136 | 1.0 | 4.0 | 0.00 | 0.00 | 0.00 | 47 | 1013.3 |
| 20260901202509 | 86 | 202 | 0.0 | 4.0 | 0.00 | 0.00 | 0.00 | 47 | 1014.1 |
| 20260901202010 | 87 | 134 | 0.0 | 3.0 | 0.00 | 0.00 | 0.00 | 47 | 1014.1 |
| 20260901201510 | 87 | 138 | 0.0 | 3.0 | 0.00 | 0.00 | 0.00 | 46 | 1014.1 |
| 20260901201007 | 88 | 213 | 0.0 | 6.0 | 0.00 | 0.00 | 0.00 | 45 | 1014.3 |
| 20260901200507 | 89 | 64 | 2.0 | 8.0 | 0.00 | 0.00 | 0.00 | 46 | 1014.4 |
| 20260901200016 | 89 | 197 | 2.0 | 8.0 | 0.00 | 0.00 | 0.00 | 44 | 1014.4 |
| 20260901195510 | 89 | 229 | 0.0 | 6.0 | 0.00 | 0.00 | 0.00 | 45 | 1014.4 |
| 20260901195007 | 89 | 142 | 1.0 | 6.0 | 0.00 | 0.00 | 0.00 | 44 | 1014.4 |
| 20260901194512 | 89 | 124 | 1.0 | 3.0 | 0.00 | 0.00 | 0.00 | 46 | 1014.4 |
| 20260901194009 | 87 | 248 | 0.0 | 3.0 | 0.00 | 0.00 | 0.00 | 46 | 1014.4 |
| 20260901193508 | 86 | 171 | 0.0 | 3.0 | 0.00 | 0.00 | 0.00 | 50 | 1014.4 |
| 20260901193014 | 86 | 138 | 0.0 | 3.0 | 0.00 | 0.00 | 0.00 | 48 | 1014.4 |
| 20260901192513 | 86 | 106 | 0.0 | 2.0 | 0.00 | 0.00 | 0.00 | 47 | 1014.3 |
| 20260901192012 | 86 | 212 | 0.0 | 2.0 | 0.00 | 0.00 | 0.00 | 48 | 1014.3 |
| 20260901191517 | 86 | 254 | 0.0 | 2.0 | 0.00 | 0.00 | 0.00 | 48 | 1014.3 |
| 20260901191012 | 86 | 203 | 0.0 | 2.0 | 0.00 | 0.00 | 0.00 | 47 | 1014.4 |
| 20260901190509 | 86 | 279 | 0.0 | 2.0 | 0.00 | 0.00 | 0.00 | 48 | 1014.4 |
| 20260901190020 | 85 | 49 | 0.0 | 1.0 | 0.00 | 0.00 | 0.00 | 48 | 1014.3 |
| 20260901185512 | 85 | 26 | 0.0 | 2.0 | 0.00 | 0.00 | 0.00 | 51 | 1014.3 |
| 20260901185008 | 85 | 26 | 0.0 | 2.0 | 0.00 | 0.00 | 0.00 | 51 | 1014.4 |
| 20260901184516 | 86 | 22 | 0.0 | 1.0 | 0.00 | 0.00 | 0.00 | 51 | 1014.6 |
| 20260901184008 | 86 | 227 | 0.0 | 3.0 | 0.00 | 0.00 | 0.00 | 49 | 1014.7 |
| 20260901183508 | 86 | 319 | 0.0 | 3.0 | 0.00 | 0.00 | 0.00 | 46 | 1014.8 |
| 20260901183023 | 87 | 9 | 0.0 | 2.0 | 0.00 | 0.00 | 0.00 | 46 | 1014.9 |
| 20260901182509 | 87 | 21 | 0.0 | 2.0 | 0.00 | 0.00 | 0.00 | 50 | 1015.0 |
| 20260901182012 | 87 | 159 | 0.0 | 2.0 | 0.00 | 0.00 | 0.00 | 47 | 1015.0 |
| 20260901181518 | 86 | 281 | 0.0 | 3.0 | 0.00 | 0.00 | 0.00 | 47 | 1015.2 |
| 20260901181009 | 86 | 5 | 1.0 | 3.0 | 0.00 | 0.00 | 0.00 | 46 | 1015.3 |
| 20260901180510 | 85 | 325 | 0.0 | 2.0 | 0.00 | 0.00 | 0.00 | 52 | 1015.3 |
| 20260901180021 | 84 | 104 | 0.0 | 3.0 | 0.00 | 0.00 | 0.00 | 50 | 1015.4 |
| 20260901175511 | 85 | 196 | 0.0 | 3.0 | 0.00 | 0.00 | 0.00 | 48 | 1015.3 |
| 20260901175011 | 85 | 324 | 0.0 | 2.0 | 0.00 | 0.00 | 0.00 | 52 | 1015.3 |
| 20260901174518 | 86 | 167 | 0.0 | 2.0 | 0.00 | 0.00 | 0.00 | 46 | 1015.3 |
| 20260901174016 | 86 | 279 | 0.0 | 3.0 | 0.00 | 0.00 | 0.00 | 46 | 1015.3 |
| 20260901173512 | 86 | 5 | 0.0 | 5.0 | 0.00 | 0.00 | 0.00 | 45 | 1015.2 |
| 20260901173022 | 86 | 24 | 1.0 | 5.0 | 0.00 | 0.00 | 0.00 | 50 | 1015.3 |
| 20260901172512 | 85 | 360 | 1.0 | 3.0 | 0.00 | 0.00 | 0.00 | 47 | 1015.3 |
| 20260901172012 | 86 | 9 | 0.0 | 4.0 | 0.00 | 0.00 | 0.00 | 47 | 1015.4 |
| 20260901171520 | 87 | 31 | 1.0 | 4.0 | 0.00 | 0.00 | 0.00 | 44 | 1015.4 |
| 20260901171012 | 88 | 255 | 0.0 | 5.0 | 0.00 | 0.00 | 0.00 | 45 | 1015.4 |
| 20260901170511 | 87 | 310 | 0.0 | 5.0 | 0.00 | 0.00 | 0.00 | 46 | 1015.5 |
| 20260901170038 | 87 | 321 | 1.0 | 4.0 | 0.00 | 0.00 | 0.00 | 44 | 1015.5 |
| 20260901165515 | 88 | 329 | 1.0 | 4.0 | 0.00 | 0.00 | 0.00 | 46 | 1015.4 |
| 20260901165010 | 87 | 332 | 1.0 | 4.0 | 0.00 | 0.00 | 0.00 | 48 | 1015.3 |
| 20260901164523 | 87 | 310 | 0.0 | 3.0 | 0.00 | 0.00 | 0.00 | 47 | 1015.3 |
| 20260901164012 | 87 | 310 | 0.0 | 3.0 | 0.00 | 0.00 | 0.00 | 42 | 1015.4 |
| 20260901163512 | 86 | 38 | 0.0 | 4.0 | 0.00 | 0.00 | 0.00 | 45 | 1015.4 |
| 20260901163020 | 86 | 211 | 1.0 | 4.0 | 0.00 | 0.00 | 0.00 | 47 | 1015.4 |
| 20260901162511 | 86 | 360 | 1.0 | 4.0 | 0.00 | 0.00 | 0.00 | 45 | 1015.4 |
| 20260901162015 | 85 | 318 | 1.0 | 4.0 | 0.00 | 0.00 | 0.00 | 47 | 1015.4 |
| 20260901161521 | 85 | 10 | 1.0 | 5.0 | 0.00 | 0.00 | 0.00 | 46 | 1015.4 |
| 20260901161016 | 85 | 344 | 1.0 | 5.0 | 0.00 | 0.00 | 0.00 | 47 | 1015.4 |
| 20260901160515 | 84 | 331 | 1.0 | 4.0 | 0.00 | 0.00 | 0.00 | 48 | 1015.4 |
| 20260901160024 | 84 | 341 | 1.0 | 4.0 | 0.00 | 0.00 | 0.00 | 52 | 1015.4 |
| 20260901155512 | 83 | 327 | 1.0 | 5.0 | 0.00 | 0.00 | 0.00 | 51 | 1015.5 |
| 20260901155014 | 83 | 234 | 0.0 | 5.0 | 0.00 | 0.00 | 0.00 | 54 | 1015.5 |
| 20260901154524 | 83 | 24 | 1.0 | 4.0 | 0.00 | 0.00 | 0.00 | 57 | 1015.5 |
| 20260901154012 | 84 | 115 | 0.0 | 5.0 | 0.00 | 0.00 | 0.00 | 56 | 1015.5 |
| 20260901153512 | 83 | 319 | 1.0 | 5.0 | 0.00 | 0.00 | 0.00 | 60 | 1015.4 |
| 20260901153023 | 82 | 342 | 0.0 | 4.0 | 0.00 | 0.00 | 0.00 | 62 | 1015.4 |
| 20260901152511 | 81 | 298 | 0.0 | 3.0 | 0.00 | 0.00 | 0.00 | 68 | 1015.4 |
| 20260901152010 | 80 | 274 | 0.0 | 3.0 | 0.00 | 0.00 | 0.00 | 69 | 1015.4 |
| 20260901151515 | 80 | 9 | 0.0 | 4.0 | 0.00 | 0.00 | 0.00 | 68 | 1015.3 |
| 20260901151004 | 80 | 350 | 1.0 | 4.0 | 0.00 | 0.00 | 0.00 | 69 | 1015.4 |
| 20260901150509 | 79 | 5 | 0.0 | 3.0 | 0.00 | 0.00 | 0.00 | 69 | 1015.4 |
| 20260901150012 | 78 | 36 | 0.0 | 3.0 | 0.00 | 0.00 | 0.00 | 71 | 1015.4 |
| 20260901145503 | 77 | 230 | 0.0 | 2.0 | 0.00 | 0.00 | 0.00 | 72 | 1015.5 |
| 20260901145007 | 77 | 320 | 0.0 | 2.0 | 0.00 | 0.00 | 0.00 | 72 | 1015.5 |
| 20260901144517 | 76 | 230 | 0.0 | 2.0 | 0.00 | 0.00 | 0.00 | 74 | 1015.4 |
| 20260901144005 | 75 | 236 | 0.0 | 2.0 | 0.00 | 0.00 | 0.00 | 74 | 1015.4 |
| 20260901143502 | 75 | 246 | 0.0 | 2.0 | 0.00 | 0.00 | 0.00 | 77 | 1015.4 |
| 20260901143020 | 74 | 237 | 0.0 | 2.0 | 0.00 | 0.00 | 0.00 | 78 | 1015.5 |
| 20260901142508 | 73 | 137 | 0.0 | 0.0 | 0.00 | 0.00 | 0.00 | 81 | 1015.5 |
| 20260901142003 | 72 | 137 | 0.0 | 0.0 | 0.00 | 0.00 | 0.00 | 82 | 1015.5 |
| 20260901141513 | 71 | 202 | 0.0 | 0.0 | 0.00 | 0.00 | 0.00 | 84 | 1015.5 |